Orbital Elements at Epoch 2459200.5 (2020-Dec-17.0) TDB
Reference: JPL 25 (heliocentric ecliptic J2000)
Element | Value | Uncertainty (1-sigma) | Units |
e | .09565157510113739 | 6.5811e-08 | |
a | 2.592598935545391 | 1.5543e-08 | au |
q | 2.344612763754942 | 1.7027e-07 | au |
i | 28.1656151274321 | 6.3367e-06 | deg |
node | 268.3757384536704 | 1.1643e-05 | deg |
peri | 204.9422699006831 | 3.5962e-05 | deg |
M | 84.31172229073586 | 3.0764e-05 | deg |
tp | 2458843.402430163594 (2019-Dec-25.90243016) | 0.00013042 | TDB |
period | 1524.759803836101 4.17 | 1.3712e-05 3.754e-08 | d yr |
n | .2361027612967537 | 2.1232e-09 | deg/d |
Q | 2.840585107335839 | 1.703e-08 | au |
|
| | Orbit Determination Parameters
Additional Information
|